Regional Weather Roundup
Issued by NWS Charleston, WV

Home | Current Version | Previous Version | Text Only | Print | Product List | Glossary Off
Versions: 1 2 3 4 5 6 7 8 9 10 11 12 13 14 15 16 17 18 19 20 21 22 23 24 25 26 27 28 29 30 31 32 33 34 35 36 37 38 39 40 41 42 43 44 45 46 47 48 49 50

000
ASUS41 KRLX 181510
RWRRLX
West Virginia Regional Weather Roundup
National Weather Service Charleston WV
1000 AM EST THU DEC 18 2014

Note: "fair" indicates few or no clouds below 12,000 feet with no
significant weather and/or obstructions to visibility.

WVZ003-181600-
Northern Panhandle of West Virginia

CITY           SKY/WX    TMP DP  RH WIND       PRES   REMARKS
WHEELING       CLOUDY    27  20  75 W6        30.20S
$$

WVZ009-181600-
Northwest West Virginia

CITY           SKY/WX    TMP DP  RH WIND       PRES   REMARKS
PARKERSBURG    CLOUDY    28  18  66 CALM      30.29S
$$

WVZ006-181600-
Western West Virginia

CITY           SKY/WX    TMP DP  RH WIND       PRES   REMARKS
HUNTINGTON     CLOUDY    29  22  75 CALM      30.26F
$$

WVZ015-181600-
West Central West Virginia

CITY           SKY/WX    TMP DP  RH WIND       PRES   REMARKS
CHARLESTON     CLOUDY    30  21  69 CALM      30.25S
$$

WVZ022-031-181600-
North Central West Virginia

CITY           SKY/WX    TMP DP  RH WIND       PRES   REMARKS
CLARKSBURG     CLOUDY    27  19  72 SW8       30.23R
MORGANTOWN     CLOUDY    28  17  63 SW5       30.21S
$$

WVZ025-035-042-045-181600-
Southern West Virginia

CITY           SKY/WX    TMP DP  RH WIND       PRES   REMARKS
BECKLEY        CLOUDY    27  20  75 VRB5      30.16R
LOGAN          CLOUDY    30  25  80 CALM      30.21S
BLUEFIELD      CLOUDY    28  21  75 W6        30.15R
LEWISBURG      PTSUNNY   31  21  67 SW9       30.17R
$$

WVZ047-181600-
Northern Mountains of West Virginia

CITY           SKY/WX    TMP DP  RH WIND       PRES   REMARKS
ELKINS         CLOUDY    26  20  77 W7        30.18R
$$

WVZ052-181600-
Eastern Panhandle of West Virginia

CITY           SKY/WX    TMP DP  RH WIND       PRES   REMARKS
MARTINSBURG    CLOUDY    34  18  52 W8        30.18R
PETERSBURG     PTSUNNY   33  19  57 W7        30.20R
$$



USA.gov is the U.S. government's official web portal to all federal, state and local government web resources and services.